#timestamp,LO_Frequency,Hit,StdDev 
1546707615.6,286046999.9,N
1546707635.4,286047000.5,N
1546707655.2,286047000.2,N
1546707675.1,286047000.8,N
1546707676.0,286047000.8,N
1546707695.8,286047000.8,N
1546707715.7,286046998.9,N
1546707735.5,286046996.5,Y
1546707755.4,286046998.2,P
1546707775.2,286047000.3,N
1546707795.0,286047000.2,N
1546707795.9,286047000.2,N
1546707815.8,286047002.7,Y
1546707835.6,286047002.6,P
1546707855.4,286047000.1,N
1546707875.3,286047000.3,N
1546707895.1,286047000.0,N
1546707915.9,286046998.1,N
1546707935.7,286047002.2,N
1546707955.5,286047004.3,Y
1546707975.4,286047002.0,P
1546707995.2,286047002.3,N
1546708015.0,286047002.6,P
1546708016.0,286047002.6,Y
1546708035.8,286047001.1,P
1546708055.6,286047000.6,N
1546708075.5,286047000.5,N
1546708095.3,286047001.1,N
1546708115.1,286047000.4,N
1546708135.9,286046998.7,N
1546708155.7,286046998.4,N
1546708175.5,286047001.0,N
1546708195.4,286047000.4,N
1546708215.2,286046999.8,N
1546708235.1,286047002.3,N
1546708236.0,286047002.3,N
1546708255.8,286047002.6,N
1546708275.6,286047000.5,N
1546708295.5,286047000.0,N
1546708315.3,286047000.1,N
1546708335.1,286047002.4,N
1546708355.9,286046999.8,N
1546708375.7,286046999.7,N
1546708395.6,286047000.4,N
1546708415.4,286047002.3,N
1546708435.2,286047001.3,N
1546708455.1,286047001.7,N
1546708456.0,286047001.7,N
1546708475.8,286047002.6,N
1546708495.7,286047002.8,N
1546708515.5,286047000.2,N
1546708535.3,286047001.1,N
1546708555.2,286046999.7,N
1546708575.0,286047000.9,N
1546708575.9,286047000.9,N
1546708595.7,286047000.1,N
1546708615.6,286046999.0,N
1546708635.4,286046999.1,N
1546708655.3,286046999.2,N
1546708675.1,286047000.5,N
1546708695.8,286047000.8,N
1546708715.7,286047000.5,N
1546708735.5,286047000.1,N
1546708755.4,286047002.1,N
1546708775.2,286047002.2,N
1546708795.0,286047000.1,N
1546708795.9,286047000.1,N
1546708815.8,286047000.0,N
1546708835.6,286047001.0,N
1546708855.5,286047014.9,Y
1546708875.3,286047014.6,P
1546708895.1,286047012.9,N
1546708915.9,286047009.4,N
1546708935.7,286047006.3,N
1546708955.5,286047004.5,N
1546708975.4,286047004.6,N
1546708995.2,286047004.9,N
1546709015.1,286047005.2,N
1546709016.0,286047005.2,N
1546709035.8,286047003.4,N
1546709055.6,286047005.6,N
1546709075.5,286047004.1,N
1546709095.3,286047001.6,N
1546709115.1,286047000.8,N
1546709135.9,286046999.1,N
1546709155.7,286046999.3,N
1546709175.6,286046998.1,N
1546709195.4,286047001.1,N
1546709215.2,286046998.1,N
1546709235.1,286046998.7,N
1546709236.0,286046998.7,N
1546709255.8,286046998.1,N
1546709275.6,286047000.1,N
1546709295.5,286047000.3,N
1546709315.3,286046999.7,N
1546709335.2,286047002.6,N
1546709355.9,286047002.6,N
1546709375.7,286046999.8,N
1546709395.6,286047002.4,N
1546709415.4,286047000.9,N
1546709435.2,286046998.4,N
1546709455.1,286046999.6,N
1546709456.0,286046999.6,N
1546709475.8,286046997.1,N
1546709495.7,286046995.4,N
1546709515.5,286046997.7,N
1546709535.3,286046999.2,N
1546709555.2,286046998.7,N
1546709575.0,286047000.2,N
1546709575.9,286047000.2,N
1546709595.8,286047000.3,N
1546709615.6,286047000.9,N
1546709635.4,286046998.3,N
1546709655.3,286046997.4,N
1546709675.1,286046999.3,N
1546709695.9,286046999.0,N
1546709715.7,286046999.6,N
1546709735.5,286046997.0,N
1546709755.4,286046997.7,N
1546709775.2,286046997.7,N
1546709795.1,286046999.2,N
1546709796.0,286046999.2,N
1546709815.8,286046999.2,N
1546709835.6,286046998.4,N
1546709855.5,286046998.8,N
1546709875.3,286046998.1,N
1546709895.2,286046996.9,N
1546709915.9,286046997.8,N
1546709935.7,286046997.7,N
1546709955.6,286046999.1,N
1546709975.4,286046996.6,N
1546709995.3,286046997.1,N
1546710015.1,286046999.4,N
1546710016.0,286046999.4,N
1546710035.8,286046999.4,N
1546710055.7,286046999.5,N
1546710075.5,286046999.4,N
1546710095.3,286046998.9,N
1546710115.2,286046999.5,N
1546710135.0,286046998.5,N
1546710135.9,286046998.5,N
1546710155.8,286047000.7,N
1546710175.6,286047000.0,N
1546710195.4,286047000.4,N
1546710215.3,286047002.8,N
1546710235.1,286047000.6,N
1546710255.9,286046998.6,N
1546710275.7,286047000.8,N
1546710295.5,286047001.1,N
1546710315.4,286047000.7,N
1546710335.2,286047000.8,N
1546710355.1,286047000.2,N
1546710356.0,286047000.2,N
1546710375.8,286047002.8,N
1546710395.6,286047000.5,N
1546710415.5,286047000.9,N
1546710435.3,286047001.0,N
1546710455.2,286046999.7,N
1546710475.9,286047000.5,N
1546710495.7,286047000.5,N
1546710515.6,286046998.9,N
1546710535.4,286046999.2,N
1546710555.2,286046999.0,N
1546710575.1,286046997.7,N
1546710576.0,286046997.7,N
1546710595.8,286046997.3,N
1546710615.7,286046996.7,N
1546710635.5,286046997.7,N
1546710655.3,286046997.6,N
1546710675.2,286046997.5,N
1546710695.0,286046996.3,N
1546710695.9,286046996.3,N
1546710715.8,286046993.3,Y
1546710735.6,286046995.0,P
1546710755.4,286046997.8,N
1546710775.3,286046999.6,N
1546710795.1,286046999.5,N
1546710815.8,286046996.8,N
1546710835.7,286046997.7,N
1546710855.5,286046996.6,N
1546710875.4,286046999.3,N
1546710895.2,286046998.9,N
1546710915.0,286047000.3,N
1546710915.9,286047000.3,N
1546710935.8,286046998.9,N
1546710955.6,286046998.1,N
1546710975.4,286046998.6,N
1546710995.3,286046998.9,N
1546711015.1,286047001.2,N
1546711035.9,286046999.9,N
1546711055.7,286047000.3,N
1546711075.5,286047002.7,N
1546711095.4,286047000.3,N
1546711115.2,286046999.7,N
1546711135.0,286046998.4,N
1546711135.9,286046998.4,N
1546711155.8,286046998.4,N
1546711175.6,286047000.9,N
1546711195.5,286047000.6,N
